Location: Leiter
(44.7178°N, 106.2687°W)
Time: 17:47:37
(UTC+00:00)

STARS - Pass Details

Date: 03 July 2022
Orbit: 620 x 637 km, 98.2° (Epoch: 18 August)

Event Time Altitude Azimuth Distance (km) Brightness Sun altitude
Rises 07:02:30 0° 359° (N) 2,933 ? -22.3°
Reaches altitude 10° 07:05:13 10° 341° (NNW) 2,016 ? -22.3°
Maximum altitude 07:08:16 19° 297° (WNW) 1,511 ? -22.3°
Enters shadow 07:10:36 13° 260° (W) 1,818 ? -22.3°
